Regional Weather Roundup
Issued by NWS

Home | Current Version | Previous Version | Graphics & Text | Print | Product List | Glossary On
Versions: 1 2 3 4 5 6 7 8 9 10 11 12 13 14 15 16 17 18 19 20 21 22 23 24 25 26 27 28 29 30 31 32 33 34 35 36 37 38 39 40 41 42 43 44 45 46 47 48 49 50
831
ASUS44 KMEG 030500
RWRTN
TENNESSEE HOURLY STATE WEATHER ROUNDUP
NATIONAL WEATHER SERVICE MEMPHIS TN
1100 PM CST FRI DEC 02 2016

TNZ002-004-019-021-049-052-054-088>092-030600-
WEST TENNESSEE

CITY           SKY/WX    TMP DP  RH WIND       PRES   REMARKS
MEMPHIS INTL   CLOUDY    50  35  56 NE6       30.29S
NWS MEMPHIS      N/A     49 N/A N/A MISG        N/A
JACKSON        PTCLDY    42  35  76 CALM      30.31S
DYERSBURG      CLOUDY   N/A N/A N/A E5        30.31S
UNION CITY     CLEAR     39  30  70 CALM      30.32R
PARIS          CLEAR     39  30  70 NE6       30.33R WCI  35
$$

TNZ008-025-027-028-033-062-065-066-030600-
NORTH MIDDLE TENNESSEE

CITY           SKY/WX    TMP DP  RH WIND       PRES   REMARKS
NASHVILLE      CLOUDY    42  30  62 N6        30.34R
SMYRNA         CLOUDY    41  32  70 N6        30.34R
CROSSVILLE     CLOUDY    38  27  64 N5        30.29S WCI  34
$$

TNZ061-075-076-078-094-096-097-030600-
SOUTH MIDDLE TENNESSEE

CITY           SKY/WX    TMP DP  RH WIND       PRES   REMARKS
TULLAHOMA      CLEAR     37  32  81 CALM      30.29S
WINCHESTER     CLEAR     39  36  87 CALM      30.30R
SHELBYVILLE    CLEAR     45  34  65 NE6       30.31R
$$

TNZ017-018-042-046-047-030600-
NORTHEAST TENNESSEE

CITY           SKY/WX    TMP DP  RH WIND       PRES   REMARKS
TRI CITIES     CLEAR     36  27  69 N3        30.27R
$$

TNZ012-013-036-069-073-074-030600-
CENTRAL EAST TENNESSEE

CITY           SKY/WX    TMP DP  RH WIND       PRES   REMARKS
KNOXVILLE      PTCLDY    37  31  78 CALM      30.27F
OAK RIDGE      CLEAR     37  31  78 CALM      30.29F
GATLINBURG     CLEAR     30  28  93 CALM      30.28S
$$

TNZ083-085-099-030600-
SOUTHEAST TENNESSEE

CITY           SKY/WX    TMP DP  RH WIND       PRES   REMARKS
CHATTANOOGA    PTCLDY    42  35  76 S3        30.29S
$$

SKY/WX REPORTED AS FAIR MEANS FEW OR NO CLOUDS BELOW
12 THOUSAND FEET.





USA.gov is the U.S. government's official web portal to all federal, state and local government web resources and services.